Institutional Ownership

Institutional Ownership

Ownership > 100%

Ownership Information
Shares Outstanding
33,676,921
Institutional Ownership (%)
38.03
Insider Ownership (%)
28.02
Ownership Activity - Total Positions
Company Shares % Out Value ($) Reported Change
GRQ Consultants, Inc. 401K Plan 5,269,167 15.65 6,164,925 12/20/2018 75,599
Donald Smith & Co. Inc. 3,257,930 9.67 3,811,778 12/31/2018 6,000
Ruffer LLP 1,817,473 5.40 2,126,443 12/31/2018 5,196
K2 & Associates Investment Management Inc. 843,102 2.50 986,429 12/31/2018 843,102
Cambridge Investment Research Advisors Inc. 407,740 1.21 477,056 12/31/2018 (89,700)
Vanguard Group Inc. 387,246 1.15 453,078 12/31/2018 (330,886)
FNY Investment Advisers LLC 199,737 0.59 233,692 12/31/2018 199,737
Renaissance Technologies LLC 188,360 0.56 220,381 12/31/2018 66,174
Atg Capital LLC 174,999 0.52 204,749 8/17/2018 0
GRQ Consultants Inc. 130,892 0.39 153,144 12/20/2018 9,392
Geode Capital Management LLC 117,782 0.35 137,805 12/31/2018 0
OTP Alapkezelő Zrt. 89,964 0.27 105,258 6/29/2018 0
GRQ Consultants, Inc., Defined Benefit Pension Plan 89,147 0.26 104,302 12/20/2018 (1)
Wells Fargo & Co. 84,708 0.25 99,108 12/31/2018 1,035
BlackRock Inc. 71,448 0.21 83,594 12/31/2018 34
Horizon Kinetics LLC 69,842 0.21 81,715 12/31/2018 0
Northern Trust Global Investments 54,313 0.16 63,546 12/31/2018 0
Dr. Bost & Compagnon Vermogensberatungs Gmbh & Co. Kg 40,000 0.12 46,800 2/28/2019 30,000
U.S. Bancorp Asset Management Inc. 19,981 0.06 23,378 12/31/2018 0
Susquehanna International Group LLP 12,124 0.04 14,185 12/31/2018 (40,207)
Displaying 1 to 20 (of 43)